Regional Weather Roundup
Issued by NWS State College, PA

Home | Current Version | Previous Version | Text Only | Print | Product List | Glossary Off
Versions: 1 2 3 4 5 6 7 8 9 10 11 12 13 14 15 16 17 18 19 20 21 22 23 24 25 26 27 28 29 30 31 32 33 34 35 36 37 38 39 40 41 42 43 44 45 46 47 48 49 50

000
ASUS41 KCTP 270903
RWRCTP

REGIONAL WEATHER ROUNDUP
NATIONAL WEATHER SERVICE STATE COLLEGE PA
500 AM EDT WED MAY 27 2015

Note: "fair" indicates few or no clouds below 12,000 feet with no
significant weather and/or obstructions to visibility.

* = STATION THAT DOES NOT REPORT PRECIPITATION /E.G. RAIN...SNOW...ETC/
    THUNDER OR FOG.

PAZ002>004-007>009-013>016-020>023-029>032-271000-
WESTERN PENNSYLVANIA

CITY           SKY/WX    TMP DP  RH WIND       PRES   REMARKS
ERIE           CLOUDY    70  63  78 SW16G23   29.99R
MEADVILLE      CLOUDY    66  62  87 SW7       30.04S
FRANKLIN*      CLOUDY    64  61  88 S8        30.07F
NEW CASTLE     FAIR      66  66 100 CALM      30.06S
BEAVER COUNTY  NOT AVBL
BUTLER*        MOCLDY    64  63  94 SW7       30.09S
PITTSBURGH INT CLOUDY    66  63  90 S5        30.07R
PITTSBURGH     CLOUDY    65  60  84 S9        30.08R
INDIANA*       PTCLDY    68  64  88 W8G14     30.14R
LATROBE        CLOUDY    68  64  88 SW12      30.12R
WASHINGTON CO* MOCLDY    63  61  94 S5        30.11S
$$

PAZ004>006-010>012-017>019-024>028-033>037-041-042-045-046-049>053-271000-
CENTRAL PENNSYLVANIA

CITY           SKY/WX    TMP DP  RH WIND       PRES   REMARKS
BRADFORD       CLOUDY    64  61  90 S6        30.09S
DUBOIS         MOCLDY    68  62  81 SW8       30.09S
CLEARFIELD     CLOUDY    64  62  93 CALM      30.10S
JOHNSTOWN      PTCLDY    65  60  84 SW6       30.14R
ALTOONA        MOCLDY    67  62  84 CALM      30.12S
STATE COLLEGE  MOCLDY    69  64  83 SW5       30.10S
WILLIAMSPORT   PTCLDY    68  65  90 N5        30.07S
SELINSGROVE    PTCLDY    70  66  87 CALM      30.10S
FT INDIANTOWN  PTCLDY    65  64  98 NE1       30.12S
CAPITAL CITY   CLEAR     72  65  78 VRB5      30.11S
HARRISBURG     PTCLDY    72  65  78 S7        30.10F
YORK           MOCLDY    71  65  81 S5        30.12S
$$

PAZ038>040-043-044-047-048-054-055-060>062-067>071-271000-
EASTERN PENNSYLVANIA

CITY           SKY/WX    TMP DP  RH WIND       PRES   REMARKS
SCRANTON       PTCLDY    72  64  76 S7        30.11S
MOUNT POCONO   MOCLDY    66  63  90 SW8       30.17S
ALLENTOWN      MOCLDY    72  64  76 S6        30.13S
QUAKERTOWN*    PTSUNNY   68  64  88 S3        30.15F
READING        CLOUDY    72  65  78 S5        30.11F
LANCASTER      MOCLDY    70  66  87 S6        30.13S
COATESVILLE    CLOUDY    68  68 100 S3        30.16S
POTTSTOWN      MOCLDY    70  67  90 S5        30.16S
BLUE BELL      MOCLDY    70  66  88 S6        30.14S
DOYLESTOWN     MOCLDY    68  65  90 S6        30.14S
WILLOW GROVE   NOT AVBL
NORTH PHILA    PTCLDY    71  64  78 S6        30.17S
PHILADELPHIA   MOCLDY    71  66  84 S7        30.16S
$$


USA.gov is the U.S. government's official web portal to all federal, state and local government web resources and services.